Regional Weather Roundup
Issued by NWS San Diego, CA

Home | Current Version | Previous Version | Text Only | Print | Product List | Glossary On
Versions: 1 2 3 4 5 6 7 8 9 10 11 12 13 14 15 16 17 18 19 20 21 22 23 24 25 26 27 28 29 30 31 32 33 34 35 36 37 38 39 40 41 42 43 44 45 46 47 48 49 50
228
ASUS46 KSGX 252311
RWRSGX

SAN DIEGO HOURLY WEATHER ROUNDUP
NATIONAL WEATHER SERVICE SAN DIEGO CA
300 PM PST SAT FEB 25 2017

NOTE: "FAIR" INDICATES FEW OR NO CLOUDS BELOW 12,000 FEET WITH NO
SIGNIFICANT WEATHER AND/OR OBSTRUCTIONS TO VISIBILITY.

CAZ042-043-060-061-PZZ750-775-260000-

GREATER SAN DIEGO AREA

CITY           SKY/WX    TMP DP  RH WIND       PRES   REMARKS
SAN DIEGO AP   PTSUNNY   61  40  45 NW10      30.06F
POINT LOMA       N/A     59  47  64 W15         N/A
NATIONAL CITY    N/A     61  49  65 SW7       30.05F
CHULA VISTA      N/A     60  49  68 W6        29.98F
IMPERIAL BEACH SUNNY    N/A N/A N/A W9        30.05F
BROWN FIELD    SUNNY     58  47  66 W9        30.04F
MIRAMAR MCAS     N/A     62  44  51 W9        30.03F
MONTGOMERY FLD SUNNY     59  39  47 SW9       30.04F

$$

NORTH SAN DIEGO COUNTY

CITY           SKY/WX    TMP DP  RH WIND       PRES   REMARKS
CAMP PENDLETON MOSUNNY   59  42  53 SW8       30.03F
OCEANSIDE AP   MOSUNNY   58  47  66 SW10      30.03F
OCEANSIDE HBR    N/A     58  47  67 NW12      30.07F
VISTA            N/A     58  44  59 W1        30.03F
CARLSBAD       SUNNY     57  43  59 SW9       30.04F
DEL MAR          N/A     60  49  68 CALM      30.07F
LA JOLLA SCRIP   N/A     57  47  70 W6        30.04F
FALLBROOK        N/A     60  44  54 S3        30.02F
ESCONDIDO        N/A     60  43  52 SW10      30.05F
SAN MARCOS       N/A     58  44  59 NW8       30.06F
POWAY            N/A     63  42  46 SE2       30.06F

$$

EAST SAN DIEGO COUNTY

CITY           SKY/WX    TMP DP  RH WIND       PRES   REMARKS
RAMONA         SUNNY     59  43  55 W13       30.01F
SANTEE LAKES     N/A     62  46  53 SW7       30.03F
LA MESA          N/A     60  42  52 W3        29.98F
JAMUL            N/A     59  39  46 CALM      30.06F
DESCANSO N       N/A     53  30  41 W6        30.02F
MT. LAGUNA OBS   N/A     44  11  25 SW17      29.59F
CAMPO            N/A     58  25  28 SW17      29.97F

$$

ORANGE COUNTY AND THE LOS ANGELES BASIN

CITY           SKY/WX    TMP DP  RH WIND       PRES   REMARKS
JOHN WAYNE AP  PTSUNNY   59  43  55 S10       30.04F
LAGUNA BEACH     N/A     60  49  67 S7        30.00F
LAKE FOREST FR   N/A     60  38  43 W3        29.94F
HUNTINGTON BCH   N/A     60  49  67 SW7       30.06F
LOS ALAMITOS   PTSUNNY   58  47  64 SW8       30.04F
FULLERTON      MOSUNNY   60  42  51 SW6       30.03F
LONG BEACH     MOSUNNY   58  43  57 S9        30.04F
L.A. AP        PTSUNNY   56  47  71 W10       30.04F
L.A. DOWNTOWN  PTSUNNY   59  44  57 VRB3      30.03F

$$

THE INLAND EMPIRE

CITY           SKY/WX    TMP DP  RH WIND       PRES   REMARKS
CORONA         MOSUNNY   61  44  53 W13G20    30.01F
CHINO          PTSUNNY   62  39  42 SW9       30.02F
ONTARIO        PTSUNNY   61  33  35 W10       30.00F
SAN BERNARDINO PTSUNNY   63  34  34 W10       30.00F
RIVERSIDE AP   PTSUNNY   61  38  42 W12       30.00F
MORENO VALLEY    N/A     62  41  46 S2        28.11F
MARCH ARB      MOSUNNY   61  37  40 VRB5      29.99F
HORSETHIEF CYN   N/A     62  34  35 CALM      30.03F
PERRIS           N/A     64  41  43 SW1       30.01F
HEMET EAST       N/A     59  19  21 W5        30.09F
FRENCH VALLEY  FAIR      63  25  23 S13       30.00F
TEMECULA         N/A     62  41  45 SW10      30.02F

$$

SAN BERNARDINO AND RIVERSIDE COUNTY MOUNTAINS

CITY           SKY/WX    TMP DP  RH WIND       PRES   REMARKS
BIG BEAR AP    MOSUNNY   36   9  32 W12G21    29.99F WCI  27
ANGELUS OAKS     N/A     41  23  48 CALM      30.02F
PINE COVE        N/A     41  16  36 SW3       30.07F

$$

SOUTHERN DESERT INCLUDING THE COACHELLA VALLEY

CITY           SKY/WX    TMP DP  RH WIND       PRES   REMARKS
PALM SPRINGS   MOSUNNY   66  34  30 VRB6      29.98F
PALM DESERT      N/A     70  32  24 CALM      26.42
THERMAL        MOSUNNY   68  27  21 VRB5      29.95F
BLYTHE         MOSUNNY   65  27  23 SE6       29.97F
IMPERIAL AP    SUNNY     70  31  23 SE8       29.95F
EL CENTRO NAS  MOSUNNY   69  25  19 CALM      29.97F
YUMA AZ        SUNNY     68  18  14 VRB3      29.97
MEXICALI       SUNNY     68  28  22 SE8       29.97F

$$

UPPER DESERT

CITY           SKY/WX    TMP DP  RH WIND       PRES   REMARKS
VICTORVILLE AP PTSUNNY   57  14  18 W7        29.96F
HESPERIA         N/A     54  19  25 SW15      30.15F
PALMDALE       PTSUNNY   54  24  31 W21       29.98S
LANCASTER      CLOUDY    55  27  34 SW18G28   29.98S
EDWARDS AFB    PTSUNNY   56  18  22 SW22      29.94F
DAGGETT        PTSUNNY   60  19  20 E5        29.94F
29 PALMS N     MOSUNNY   60  17  18 NE5       30.02F
NEEDLES        MOSUNNY   67  21  17 S12G21    29.96F

$$

REGIONAL REPORTS

CITY           SKY/WX    TMP DP  RH WIND       PRES   REMARKS
SANTA BARBARA  CLOUDY    56  39  53 W3        30.03F
SANDBERG       CLOUDY    46  27  47 S18       29.99S
LAS VEGAS NV   CLOUDY    52  15  23 N5        29.97F
PHOENIX AZ     PTSUNNY   65  18  16 W8        29.98F
TIJUANA        PTSUNNY   57  41  54 W12       30.07S
ENSENADA NW      N/A     59  32  35 W15       30.03F

$$

OFFSHORE ISLANDS

CITY           SKY/WX    TMP DP  RH WIND       PRES   REMARKS
CATALINA ARPT  PTSUNNY   50  44  80 W15       30.03F
SAN NICOLAS IS CLOUDY   N/A N/A N/A NW15G24   30.05F

$$

MARINE AND OFFSHORE BUOY REPORTS

STATION/POSITION SKY/WX   TEMP    WIND        PRES    VSBY  SWELL
                          AIR SEA DIR/SP/G                  HT/PER/DIR
                          (F)     (DEG/KT/KT) (MB)    (MI)  (FT/S/D)
TANNER BANKS               54 59  320/ 16/ 17 1018.7F         5/310/15
S CLEMENTE BASIN           55 59  280/ 16/ 19 1018.0F         3/310/16
SAN NICOLAS IS.               55                N/A           3/300/14
SO. S. ROSA ISLA           52 56  280/ 14/ 16 1018.1F         5/280/15
W. S. BARBARA CH           51 54  340/ 10/ 12 1018.1F         5/300/15
M. S. BARBARA CH                                N/A           3/280/15
S. MONICA BASIN            54 59  310/ 10/ 14 1017.4F         2/250/16
S PEDRO CHANNEL               59                N/A           2/270/15
CMP PENDLETON NS              58                N/A           2/240/11
OCEANSIDE OFFSHR              59                N/A           2/210/17
TORREY PINES OTR              60                N/A           2/260/15
POINT LOMA SOUTH              60                N/A           2/260/15

$$





USA.gov is the U.S. government's official web portal to all federal, state and local government web resources and services.